Regional Weather Roundup
Issued by NWS

Home | Current Version | Previous Version | Text Only | Print | Product List | Glossary On
Versions: 1 2 3 4 5 6 7 8 9 10 11 12 13 14 15 16 17 18 19 20 21 22 23 24 25 26 27 28 29 30 31 32 33 34 35 36 37 38 39 40 41 42 43 44 45 46 47 48 49 50
000
ASUS43 KLSX 231010
RWRMO

WEATHER SUMMARY FOR MISSOURI
NATIONAL WEATHER SERVICE SPRINGFIELD MO
500 AM CDT SAT JUL 23 2016

NOTE: "FAIR" INDICATES FEW OR NO CLOUDS BELOW 12,000 FEET WITH NO
       SIGNIFICANT WEATHER AND/OR OBSTRUCTIONS TO VISIBILITY.
       CURRENT SKY AND/OR WEATHER CONDITIONS ARE NOT AVAILABLE FOR
       CHILLICOTHE AND FARMINGTON.

MOZ001>031-035>038-043-044-053-054-231100-
...NORTHERN AND WESTERN MISSOURI...

CITY           SKY/WX    TMP DP  RH WIND       PRES   REMARKS
KANSAS CTY INT PTCLDY    78  73  84 S7        29.95S
KANSAS C DTWN  PTCLDY    83  73  72 SW6       29.93F
LEE`S SUMMIT   CLEAR     82  74  76 S12       29.96F
ST JOSEPH      CLOUDY    81  72  74 S5        29.93R
CHILLICOTHE      N/A     77  75  93 CALM      29.95F
KIRKSVILLE     CLEAR     74  72  93 S5        29.97F

$$
MOZ066>068-077>081-088>096-101>105-231100-
...SOUTHWEST MISSOURI...

CITY           SKY/WX    TMP DP  RH WIND       PRES   REMARKS
SPRINGFIELD    CLEAR     79  74  84 S7        30.00S
JOPLIN         CLEAR     77  72  84 S6        29.98S
BRANSON        CLEAR     75  73  94 CALM      30.02S

$$
MOZ032>034-039>042-045>050-055>058-069>072-231100-
...CENTRAL MISSOURI...

CITY           SKY/WX    TMP DP  RH WIND       PRES   REMARKS
COLUMBIA       CLEAR     76  75  97 S6        29.98F
JEFFERSON CITY CLEAR     75  74  96 CALM      29.97F
ROLLA          CLEAR     74  70  87 SW7       30.00S
SEDALIA        CLEAR     76  73  91 S7        29.98F
WHITEMAN AFB   CLEAR     77  77 100 S5        29.95F
OSAGE BEACH    CLEAR     77  74  90 S3        30.00S

$$
MOZ051-052-059>065-231100-
...EAST CENTRAL MISSOURI...

CITY           SKY/WX    TMP DP  RH WIND       PRES   REMARKS
ST LOUIS INTL  MOCLDY    78  72  81 S3        29.99S
SPIRIT OF STL  CLOUDY    73  72  96 CALM      29.97F
ST CHARLES     CLEAR     73  73 100 CALM      29.97F FOG

$$
MOZ072>076-082>087-097>100-106>115-231100-
...SOUTH CENTRAL AND SOUTHEAST MISSOURI...

CITY           SKY/WX    TMP DP  RH WIND       PRES   REMARKS
CAPE GIRARDEAU CLOUDY    75  74  96 CALM      29.98S FOG
FARMINGTON     CLOUDY    72  72 100 CALM      30.02R FOG
POPLAR BLUFF   CLOUDY    76  74  93 N3        29.98S
WEST PLAINS    CLEAR     75  72  90 CALM      30.04R

$$



USA.gov is the U.S. government's official web portal to all federal, state and local government web resources and services.